Powrót do katalogu

CZ-6A DEB

AktywnyPO
NORAD 60812·DEBRIS·🇨🇳 China

Wystrzelony Aug 6, 2024 z Taiyuan Satellite Launch Center

Loading…

Następne Przeloty (najbliższe 24 godziny)

TLE

ŚwieżeSource: Space-Track

Epoka: Sep 14, 2026, 10:47 UTC

1 60812U 24140GP  26257.44962375  .00000707  00000-0  18352-3 0  9996
2 60812  88.9752 258.8594 0087850   3.5783 356.6030 14.46375802110334

Śledź CZ-6A DEB w czasie rzeczywistym z AllMySat

Download on the App Store